Location: Cran-Gévrier
(45.9039°N, 6.1012°E)
Time: 03:47:13
(UTC+00:00)

BlueWalker 3 - Visible Passes

Search period start: 21 April 2024 00:00
Search period end: 01 May 2024 00:00
Orbit: 485 x 495 km, 53.2° (Epoch: 20 April)

Date Brightness Start Highest point End Pass type
(mag) Time Alt. Az. Time Alt. Az. Time Alt. Az.
21 Apr 2.2 19:20:20 10° WSW 19:24:08 71° NNW 19:27:58 10° NE visible
21 Apr 3.8 20:59:28 10° WNW 21:02:50 29° N 21:05:29 14° NE visible
21 Apr 4.5 22:38:23 10° NW 22:39:55 20° NW 22:39:55 20° NW visible
22 Apr 2.2 18:55:39 10° WSW 18:59:26 74° NNW 19:03:16 10° NE visible
22 Apr 3.8 20:34:45 10° WNW 20:38:07 29° N 20:41:31 10° NE visible
22 Apr 4.0 22:13:42 10° NW 22:16:11 27° NNW 22:16:11 27° NNW visible
23 Apr 3.8 20:10:01 10° WNW 20:13:24 29° N 20:16:47 10° NE visible
23 Apr 3.6 21:48:58 10° NW 21:52:21 30° N 21:52:21 30° N visible
24 Apr 3.8 19:45:14 10° WNW 19:48:38 30° N 19:52:02 10° NE visible
24 Apr 3.6 21:24:13 10° NW 21:27:37 29° N 21:28:27 27° NE visible
24 Apr 4.8 23:02:27 10° WNW 23:02:50 13° NW 23:02:50 13° NW visible
25 Apr 3.7 19:20:26 10° WNW 19:23:50 30° NNW 19:27:16 10° NE visible
25 Apr 3.6 20:59:26 10° NW 21:02:50 29° N 21:04:28 21° NE visible
25 Apr 4.4 22:37:40 10° WNW 22:38:52 19° NW 22:38:52 19° NW visible
26 Apr 3.6 20:34:38 10° NW 20:38:00 29° N 20:40:28 15° ENE visible
26 Apr 3.7 22:12:52 10° NW 22:14:52 29° NW 22:14:52 29° NW visible
27 Apr 3.6 20:09:48 10° NW 20:13:11 28° N 20:16:26 10° ENE visible
27 Apr 3.0 21:48:03 10° NW 21:50:50 44° NW 21:50:50 44° NW visible
28 Apr 3.6 19:44:57 10° NW 19:48:18 28° N 19:51:39 10° ENE visible
28 Apr 2.2 21:23:12 10° NW 21:26:47 64° N 21:26:47 64° N visible
29 Apr 3.6 19:20:04 10° NW 19:23:24 28° N 19:26:44 10° ENE visible
29 Apr 2.1 20:58:19 10° NW 21:02:08 64° NNE 21:02:43 54° ENE visible
29 Apr 4.8 22:36:57 10° W 22:37:06 11° W 22:37:06 11° W visible
30 Apr 2.2 20:33:26 10° NW 20:37:13 61° NNE 20:38:38 35° E visible
30 Apr 4.3 22:12:00 10° WNW 22:13:02 16° W 22:13:02 16° W visible
